星链-2379 (STARLINK-2379 )

导读 | 豆包AI

STARLINK-2379是美国太空探索技术公司星链计划中的卫星,于2021年3月11日发射入轨,属于星链互联网卫星星座的组成部分,其主要任务是为全球范围提供低延迟、高速率的卫星宽带互联网服务,依托近地轨道部署,可弥补地面网络覆盖盲区,推动全球互联网络覆盖能力提升。

基本信息
目录编号:
47798
目录名称:
STARLINK-2379
国际标识:
2021-018M
轨道中心:
EARTH
卫星名称:
星链-2379
卫星全名:
星链-2379 (STARLINK-2379 )
卫星状态:
在轨 (已飞行1829 天)
发射日期:
2021-03-11 UTC
国别 :
美国 (US)
星等 :
--
轨道信息
数据来源 国际轨道数据 AOE轨道数据
星历时间 2026-03-13T17:14:15+0800
1天前
查看轨道信息
2026-03-11T11:00:00+0800
3天前
查看轨道信息
半长轴 6925.32km 6925.397km
偏心率 0.0001391 0.0001567
轨道倾角 53.055° 53.051°
近地点辐角 83.570° 28.818°
升交点赤经 215.030° 225.174°
平近点角 276.545° 308.997°
近地点 546.219km 546.174km
远地点 548.147km 548.346km
周期 95.592分钟 95.593分钟
每日圈数 15.064096 15.063843
详细信息
固有亮度:
5
最大亮度:
2.5
卫星平台:
Starlink V1.0
覆盖范围:
全球
运营商:
太空探索技术公司
运营商所在国:
美国
制造商(研发单位):
太空探索技术公司
制造商所在国:
美国
使用方式:
暂无
卫星简介
星链(Starlink)计划是由太空探索技术公司(SpaceX)提出的一个巨型低轨卫星互联网星座项目,计划在2019年至2024年间在太空搭建由约1.2万颗卫星组成的“星链”网络,其中1584颗将部署在地球上空550千米处的近地轨道,并从2020年开始工作。该卫星仍在工作。
2D轨道图
3D轨道图
轨道高度分析图
轨道倾角分析图
轨道综合分析图
查看轨道综合分析图